Location: Laan Hart van Zuid
(52.2563°N, 6.7904°E)
Time: 10:39:51
(UTC+02:00)

ISS - Pass Details

Date: 22 May 2024
Orbit: 411 x 419 km, 51.6° (Epoch: 29 May)

Event Time Altitude Azimuth Distance (km) Brightness Sun altitude
Rises 00:03:39 0° 281° (W) 2,370 0.5 -14.9°
Reaches altitude 10° 00:06:05 10° 264° (W) 1,501 -0.8 -15.1°
Maximum altitude 00:08:39 20° 215° (SW) 1,017 -2.1 -15.2°
Enters shadow 00:08:41 20° 214° (SW) 1,017 -2.2 -15.2°
